Location: Mount Cross
(36.6390°N, 79.4878°W)
Time: 09:26:18
(UTC+00:00)

Tiros 1 - Visible Passes

Search period start: 29 March 2023 00:00
Search period end: 08 April 2023 00:00
Orbit: 627 x 662 km, 48.4° (Epoch: 28 March)

Date Brightness Start Highest point End Pass type
(mag) Time Alt. Az. Time Alt. Az. Time Alt. Az.
29 Mar 8.5 08:28:04 37° ENE 08:28:04 37° ENE 08:31:06 10° ENE visible
29 Mar 8.3 10:05:41 16° WNW 10:08:46 32° NNW 10:13:04 10° NE visible
30 Mar 7.6 08:52:08 55° N 08:52:08 55° N 08:56:18 10° NE visible
30 Mar 8.9 10:30:36 10° WNW 10:34:25 23° NNW 10:38:15 10° NE visible
31 Mar 10.0 07:38:31 15° ENE 07:38:31 15° ENE 07:39:20 10° ENE visible
31 Mar 8.2 09:16:07 32° NW 09:16:59 34° NNW 09:21:22 10° NE visible
01 Apr 9.2 08:02:28 26° NE 08:02:28 26° NE 08:04:35 10° NE visible
01 Apr 8.9 09:40:04 16° NW 09:42:37 24° NNW 09:46:30 10° NE visible
02 Apr 8.7 08:26:23 32° N 08:26:23 32° N 08:29:39 10° NE visible
02 Apr 9.2 10:04:51 10° NW 10:08:23 20° N 10:11:56 10° NE visible
03 Apr 10.3 07:12:40 11° NE 07:12:40 11° NE 07:12:50 10° NE visible
03 Apr 8.8 08:50:15 24° NNW 08:50:48 25° NNW 08:54:46 10° NE visible
03 Apr 9.3 10:30:37 10° NW 10:34:12 20° N 10:37:46 10° NE visible
04 Apr 9.8 07:36:32 18° NE 07:36:32 18° NE 07:37:55 10° NE visible
04 Apr 9.2 09:14:06 14° NW 09:16:33 20° N 09:20:07 10° NE visible
05 Apr 9.3 08:00:21 22° N 08:00:21 22° N 08:03:00 10° NE visible
05 Apr 9.3 09:38:48 10° NW 09:42:21 20° N 09:45:53 10° NE visible
06 Apr 9.2 08:24:12 20° NNW 08:24:42 20° N 08:28:17 10° NE visible
06 Apr 9.2 10:04:12 10° NW 10:08:06 24° NNE 10:11:59 10° ENE visible
07 Apr 10.1 07:10:27 14° NE 07:10:27 14° NE 07:11:13 10° NE visible
07 Apr 9.4 08:48:02 14° NNW 08:50:29 20° N 08:54:00 10° NE visible
